This demonstration page uses our WeatherBlox Daily Observations layout. Learn more.

Left ArrowRight Arrow

44.8408, -93.29828

Hourly Observations for May 15, 2015

Temp ( °F °C ) Dew Point ( °F °C ) Humidity (%) Winds ( mph kmh ) Pressure ( in mb ) Visibility ( mi km ) Precip ( " mm )
12:21 am 00:21 Cloudy with Mist and Fog 54 12.2 54 12.2 100 100 Calm 29.91 1013 4 6 0.00 0.00
12:53 am 00:53 Cloudy with Mist and Fog 54 12.2 54 12.2 100 100 Calm 29.88 1012 3 5 0.00 0.00
12:57 am 00:57 Cloudy with Mist and Fog 54 12.2 54 12.2 100 100 Calm 29.91 1013 3 5 0.00 0.00
1:53 am 01:53 Cloudy with Mist and Fog 54 12.2 54 12.2 100 100 Calm 29.88 1012 3 5 0.00 0.00
2:53 am 02:53 Cloudy with Mist and Fog 54 12.2 54 12.2 100 100 WNW 7 11 29.88 1012 6 10 0.00 0.00
3:53 am 03:53 Cloudy with Mist and Fog 54 12.2 54 12.2 100 100 WNW 8 13 29.91 1013 6 10 0.00 0.00
4:04 am 04:04 Cloudy 54 12 54 12 100 100 WNW 9 15 29.94 1014 7 11 0.00 0.00
4:53 am 04:53 Cloudy 53 11.7 53 11.7 100 100 WNW 6 9 29.92 1013 7 11 0.00 0.00
5:27 am 05:27 Cloudy 53 11.7 53 11.7 100 100 WNW 6 9 29.94 1014 7 11 0.00 0.00
5:53 am 05:53 Cloudy 53 11.7 53 11.7 100 100 W 7 11 29.93 1014 7 11 0.00 0.00
6:27 am 06:27 Cloudy with Mist and Fog 53 11.7 53 11.7 100 100 WNW 7 11 29.97 1015 6 10 0.00 0.00
6:53 am 06:53 Cloudy with Mist and Fog 53 11.7 52 11.1 96 96 WNW 7 11 29.93 1014 6 10 0.00 0.00
7:01 am 07:01 Cloudy with Mist and Fog 53 11.7 53 11.7 100 100 WNW 7 11 29.97 1015 6 10 0.00 0.00
7:53 am 07:53 Cloudy with Mist and Fog 53 11.7 52 11.1 96 96 WNW 8 13 29.96 1015 6 10 0.00 0.00
8:53 am 08:53 Cloudy 54 12.2 52 11.1 93 93 NW 8 13 29.98 1015 8 13 0.00 0.00
9:53 am 09:53 Cloudy 56 13.3 49 9.4 77 77 NW 8 13 29.98 1015 9 14 0.00 0.00
10:53 am 10:53 Cloudy 57 13.9 49 9.4 74 74 WNW 5 7 30.00 1016 10 16 0.00 0.00
11:53 am 11:53 Cloudy 59 15 49 9.4 69 69 NNW 6 9 30.00 1016 10 16 0.00 0.00
12:53 pm 12:53 Cloudy 61 16.1 50 10 67 67 NW 5 7 30.00 1016 10 16 0.00 0.00
1:53 pm 13:53 Mostly Cloudy 63 17.2 49 9.4 60 60 NNW 3 6 30.00 1016 10 16 0.00 0.00
2:34 pm 14:34 Mostly Cloudy 64 17.8 50 10 60 60 Calm 29.94 1014 10 16 0.00 0.00
2:53 pm 14:53 Mostly Cloudy 63 17.2 51 10.6 65 65 VRB 3 6 29.98 1015 10 16 0.00 0.00
3:53 pm 15:53 Mostly Cloudy 65 18.3 50 10 59 59 VRB 3 6 29.94 1014 10 16 0.00 0.00
4:53 pm 16:53 Mostly Cloudy 67 19.4 51 10.6 57 57 NNW 6 9 29.93 1014 10 16 0.00 0.00
5:53 pm 17:53 Mostly Cloudy 66 18.9 50 10 56 56 Calm 29.94 1014 10 16 0.00 0.00
6:53 pm 18:53 Cloudy 65 18.3 51 10.6 61 61 NNW 3 6 29.94 1014 10 16 0.00 0.00
7:53 pm 19:53 Cloudy 64 17.8 50 10 60 60 VRB 5 7 29.94 1014 10 16 0.00 0.00
8:53 pm 20:53 Cloudy 63 17.2 52 11.1 68 68 E 8 13 29.94 1014 10 16 0.00 0.00
9:53 pm 21:53 Mostly Cloudy 62 16.7 52 11.1 70 70 ENE 9 15 29.96 1015 10 16 0.00 0.00
10:53 pm 22:53 Cloudy 61 16.1 52 11.1 72 72 ENE 6 9 29.98 1015 10 16 0.00 0.00
11:53 pm 23:53 Cloudy 60 15.6 52 11.1 75 75 ENE 6 9 29.98 1015 10 16 0.00 0.00

Powered by AerisWeather